Regional Weather Roundup
Issued by NWS Mobile, AL

Home | Current Version | Previous Version | Text Only | Print | Product List | Glossary On
Versions: 1 2 3 4 5 6 7 8 9 10 11 12 13 14 15 16 17 18 19 20 21 22 23 24 25 26 27
000
ASUS44 KMOB 100712
RWRMOB
REGIONAL WEATHER ROUNDUP
NATIONAL WEATHER SERVICE MOBILE AL
100 AM CST SAT DEC 10 2016

NOTE: "FAIR" INDICATES FEW OR NO CLOUDS BELOW 12,000 FEET WITH NO
      SIGNIFICANT WEATHER AND/OR OBSTRUCTIONS TO VISIBILITY.

  * THESE STATIONS ARE PART OF THE UNIVERSITY OF SOUTH ALABAMA
    MESONET AND ARE NOT UNDER NWS OR FAA QUALITY CONTROL.

ALZ061>064-100800-
COASTAL ALABAMA

CITY           SKY/WX    TMP DP  RH WIND       PRES   REMARKS
MOBILE REG APT CLEAR     34  21  59 N12       30.52R WCI  25
BROOKLEY FIELD CLEAR     35  24  64 N9        30.53  WCI  28
USA CAMPUS*      N/A     34  23  64 N6        30.51R WCI  29
DOG RIVER*       N/A     36  25  64 N5        31.41S


CITY           SKY/WX    TMP DP  RH WIND       PRES   REMARKS
GULF SHORES    CLEAR     35  22  58 N3        30.49F

$$

ALZ051>060-100800-
INTERIOR SOUTHWEST AND SOUTH CENTRAL ALABAMA

CITY           SKY/WX    TMP DP  RH WIND       PRES   REMARKS
GREENVILLE     CLEAR     30  19  63 N6        30.48F WCI  24
EVERGREEN      NOT AVBL
ATMORE*          N/A     30  25  80 N6        30.52R WCI  24
ANDALUSIA/OPP  CLEAR     35  20  54 N5        30.49F WCI  31
ANDALUSIA*       N/A     32  21  64 N6        30.47S WCI  26
FLORALA APT    PTCLDY    31  21  66 N6        30.50R WCI  25
FLORALA*         N/A     32  23  69 W5        31.35S WCI  27

$$

FLZ001>006-100800-
WESTERN FLORIDA PANHANDLE

CITY           SKY/WX    TMP DP  RH WIND       PRES   REMARKS
PENSACOLA      CLEAR     38  23  55 N9        30.48F
NAS PENSACOLA  CLEAR     36  22  56 N7        30.48F
MILTON         CLEAR     32  21  64 N6        30.48F WCI  26
WHTNG S FIELD  CLEAR     36  22  56 N9        30.49F


CITY           SKY/WX    TMP DP  RH WIND       PRES   REMARKS
JAY*             N/A     32  23  69 N3        30.49S
DUKE FIELD     CLEAR     31  22  71 N8        30.47S WCI  23
CRESTVIEW      PTCLDY    33  21  61 N7        30.49F WCI  27
VALPARAISO     CLEAR     35  20  55 N10       30.48R WCI  27
DESTIN         CLEAR     42  24  49 N14       30.48R

$$

MSZ076-079-100800-
INTERIOR SOUTHEAST MISSISSIPPI

CITY           SKY/WX    TMP DP  RH WIND       PRES   REMARKS
LEAKESVILLE*   NOT AVBL
AGRICOLA*      NOT AVBL

$$

MARINE OBSERVATIONS

STATION/POSITION TIME  TEMP    WIND        PRES    WAVE
                       AIR SEA DIR/SP/G            HT/PER
                 (UTC) (F)     (DEG/KT/KT) (MB)    (FT/S)
PASCAGOULA       0648   38      10/ 11/ 16 1033.0R
PETIT BOIS ISLND 0648   40      20/ 18/ 23 1033.5S
GRAND BAY        0530   36     360/  7     1034.0S
KATRINA CUT      0630   39      20/ 17     1032.2F
CEDAR POINT      0630   38      10/ 10     1031.8F
E DAUPHIN ISLAND 0700   43      20/ 19/ 22 1032.7R
USCG MOBILE BAY  0648   36 58  350/  7/  9 1033.9S
STATE DOCKS      0642   37 61              1033.2S
MEAHER PARK      0630   36      10/  5     1033.2F
WEEKS BAY        0545   37                   N/A
12 S ORANGE BCH  0650   46 69   30/ 19/ 23 1032.1F   3/ 5
PENSACOLA BAY    0642   39 60   10/  7/  9 1032.2F
64 S DAUPHIN ISL 0650   54 74   30/ 16/ 19 1031.3F   5/ 6
67 S FORT MORGAN 0630   54      40/ 16     1030.5R

$$

SELECTED LOCATIONS ACROSS THE REGION

CITY           SKY/WX    TMP DP  RH WIND       PRES   REMARKS
NEW ORLEANS    CLEAR     43  27  53 NE10      30.51R
GULFPORT       CLEAR     36  22  56 N7        30.51S
PASCAGOULA AP  CLEAR     34  21  59 N9        30.52R WCI  27
PASCAGOULA*    NOT AVBL
HATTIESBURG    PTCLDY    28  24  85 CALM      30.54F
LAUREL         PTCLDY    30  19  64 N9        30.55S WCI  22
MERIDIAN       CLEAR     29  20  69 N7        30.55F WCI  22
JACKSON        CLEAR     28  24  85 N5        30.55F WCI  23
MONTGOMERY     CLEAR     33  18  53 N3        30.52F
TROY           CLEAR     30  22  72 N5        30.49F WCI  25
ASHFORD*         N/A     32  21  64 N6        30.47S WCI  26
DOTHAN         CLEAR     32  24  72 N8        30.51R WCI  25
PANAMA CITY    CLEAR     35  25  66 N8        30.46R WCI  29

$$





USA.gov is the U.S. government's official web portal to all federal, state and local government web resources and services.